Location: Berkeley
(37.8716°N, 122.2727°W)
Time: 09:21:46
(UTC-07:00)

HTV-X1 - Visible Passes

Search period start: 10 May 2026 00:00
Search period end: 20 May 2026 00:00
Orbit: 373 x 383 km, 51.6° (Epoch: 10 May)

Date Brightness Start Highest point End Pass type
(mag) Time Alt. Az. Time Alt. Az. Time Alt. Az.
10 May ? 04:21:22 51° SSE 04:21:22 51° SSE 04:23:52 10° SE visible
10 May ? 20:49:57 10° SW 20:53:01 86° SE 20:56:06 10° NE visible
10 May ? 22:27:31 10° WNW 22:29:16 14° NNW 22:31:02 10° NNE visible
11 May ? 21:25:35 10° W 21:28:10 24° NNW 21:30:46 10° NNE visible
12 May ? 22:02:43 10° NW 22:03:38 11° NNW 22:04:34 10° N visible
13 May ? 21:00:16 10° WNW 21:02:25 17° NNW 21:04:35 10° NNE visible
17 May ? 23:23:11 10° NNW 23:24:01 13° N 23:24:01 13° N visible
19 May ? 22:56:40 10° NNW 22:58:21 18° N 22:58:21 18° N visible
